Weather History for Fallon NAS, NV

Change the Weather History Date:

Sunday, July 7, 2013

  Actual Average Record
Temperature  
Mean Temperature 78 °F -  
Max Temperature 98 °F 88 °F 102 °F (2007)
Min Temperature 60 °F 51 °F 39 °F (1934)
Cooling Degree Days 13    
Growing Degree Days 28 (Base 50)    
Moisture  
Dew Point 30 °F    
Average Humidity 17    
Maximum Humidity 37    
Minimum Humidity 8    
Precipitation  
Precipitation 0.00 in - - ()
Sea Level Pressure  
Sea Level Pressure 29.83 in    
Wind  
Wind Speed 6 mph (NW)    
Max Wind Speed 16 mph    
Max Gust Speed 29 mph    
Visibility 10 miles    
Events      
Averages and records for this station are not official NWS values.
T = Trace of Precipitation, MM = Missing Value Source: NWS Daily Summary

Daily Weather History Graph

Daily Weather History Graph

Search for Another Location

Airport:

Trip Planner

Search our weather history database for the weather conditions in past years. The results will help you decide how hot, cold, wet, or windy it might be!

Date:

Astronomy

Jul. 07, 2013 Rise Set
Actual Time 5:35 AM PDT 8:24 PM PDT
Civil Twilight 5:03 AM PDT 8:56 PM PDT
Nautical Twilight 4:22 AM PDT 9:36 PM PDT
Astronomical Twilight 3:36 AM PDT 10:22 PM PDT
Moon 5:14 AM PDT (7/7) 7:51 PM PDT (7/7)
Length of Visible Light 15h 53m
Length of Day
14h 49m
Waning Crescent, 0% of the Moon is Illuminated
Jul 7
Waning Crescent
Jul 8
New
Jul 15
First Quarter
Jul 22
Full
Jul 29
Last Quarter

Hourly Weather History & Observations

Time (PDT) Temp. Dew Point Humidity Pressure Visibility Wind Dir Wind Speed Gust Speed Precip Events Conditions
12:56 AM 72.0 °F 30.9 °F 22% 29.82 in 10.0 mi NNW 8.1 mph 28.8 mph N/A   Clear
1:56 AM 72.0 °F 30.0 °F 21% 29.82 in 10.0 mi NNW 5.8 mph - N/A   Clear
2:56 AM 69.1 °F 28.9 °F 22% 29.83 in 10.0 mi ENE 3.5 mph - N/A   Clear
3:56 AM 66.0 °F 33.1 °F 29% 29.83 in 10.0 mi WNW 3.5 mph - N/A   Clear
4:56 AM 63.0 °F 36.0 °F 37% 29.83 in 10.0 mi Calm Calm - N/A   Clear
5:56 AM 60.1 °F 33.1 °F 36% 29.84 in 10.0 mi Calm Calm - N/A   Clear
6:56 AM 66.9 °F 34.0 °F 30% 29.86 in 10.0 mi Calm Calm - N/A   Clear
7:56 AM 75.0 °F 32.0 °F 21% 29.87 in 10.0 mi WNW 5.8 mph - N/A   Clear
8:56 AM 80.1 °F 28.9 °F 15% 29.88 in 10.0 mi NNW 3.5 mph - N/A   Clear
9:56 AM 84.9 °F 25.0 °F 11% 29.87 in 10.0 mi NNE 4.6 mph - N/A   Clear
10:56 AM 87.1 °F 25.0 °F 10% 29.87 in 10.0 mi Variable 6.9 mph - N/A   Clear
11:01 AM 87.8 °F 24.8 °F 10% 29.94 in 10.0 mi Variable 4.6 mph - N/A   Partly Cloudy
11:56 AM 89.1 °F 27.0 °F 11% 29.86 in 10.0 mi Variable 3.5 mph - N/A   Partly Cloudy
12:56 PM 93.0 °F 27.0 °F 9% 29.84 in 10.0 mi WNW 9.2 mph - N/A   Partly Cloudy
1:56 PM 93.2 °F 28.4 °F 10% 29.82 in 10.0 mi WNW 9.2 mph - N/A   Scattered Clouds
2:56 PM 96.8 °F 28.4 °F 9% 29.80 in 10.0 mi WNW 9.2 mph - N/A   Scattered Clouds
3:56 PM 96.8 °F 26.6 °F 8% 29.78 in 10.0 mi West 6.9 mph - N/A   Scattered Clouds
4:56 PM 96.8 °F 28.4 °F 9% 29.77 in 10.0 mi NW 8.1 mph - N/A   Mostly Cloudy
5:56 PM 96.8 °F 28.4 °F 9% 29.76 in 10.0 mi West 16.1 mph - N/A   Mostly Cloudy
6:56 PM 91.0 °F 30.9 °F 12% 29.78 in 10.0 mi West 15.0 mph - N/A   Clear
7:56 PM 87.1 °F 33.1 °F 15% 29.79 in 10.0 mi West 12.7 mph - N/A   Clear
8:56 PM 84.0 °F 34.0 °F 17% 29.82 in 10.0 mi WNW 9.2 mph - N/A   Clear
9:56 PM 82.9 °F 32.0 °F 16% 29.84 in 10.0 mi WNW 12.7 mph - N/A   Scattered Clouds
10:56 PM 75.9 °F 34.0 °F 22% 29.87 in 10.0 mi NW 3.5 mph - N/A   Clear
11:56 PM 70.0 °F 32.0 °F 25% 29.88 in 10.0 mi Calm Calm - N/A   Clear